FENGYUN 1C DEB, 40689

Orbit data source: Space-Track

FENGYUN 1C DEB, 40689 is space debris in SSO originally from a launch on Mon, 10 May 1999 UTC launched from the Taiyaun Space Center, China (TSC). Fengyun 1C debris stems from the Chinese weather satellite Fengyun-1C, which was intentionally destroyed by a Chinese anti-satellite missile in 2007. This event dramatically increased the amount of space debris, with thousands of trackable fragments posing hazards to satellites and human spaceflight. The Fengyun 1C debris cloud has become a focal point in discussions about space sustainability and the need for international regulations to prevent the creation of new debris.

Loading next visibility...
Identifier
40689, 1999-025EWV
Orbit
SSO
Country
Flag of CNCN / PRC
Related business
Manufacturer
Unknown
Mission
Spacecraft
Bus & Motor
Unknown
Mass
Unknown
Launch date (UTC)
1999-05-10 (27 years ago)
Launch vehicle
Unknown
Launch site
Taiyaun Space Center, China (TSC)
Object type
Payload
Rocket body
Debris
Shape & HBR
Unknown shape, 0.1 m
Radar Cross Section
Small (<0.1 m²)

Expand to show TLE details & history
Last TLE update: 6 days ago

TLE from 6 days ago
0 FENGYUN 1C DEB
1 40689U 99025EWV 26250.54807170  .00000972  00000-0  89406-3 0  9997
2 40689  99.1177 157.9734 0308729 122.3102 240.8341 13.65493723585518
Epoch: 2026-09-07T13:09Z
TLE epoch observation values (Epoch: 2026-09-07T13:09:13.394Z)
Latitude
-0.00005°
Longitude
-25.95966°
Altitude
1,135.147 km
Speed
7.228 km/s
True Right ascension
10h 31m 53s
True Declination
0° 00' 00"
Sunlit
Object was in daylight at epoch
Visualization orbit readout
Latitude
Unknown
Longitude
Unknown
Altitude
Unknown
Speed
Unknown
Apparent Right ascension
Unknown
Apparent Declination
Unknown
Sunlit
N/A
Visualization observer readout
Local Sidereal Time
16:55:56
Azimuth
Unknown
Elevation
Unknown
Doppler factor
Unknown
Orbital elements
Apogee altitude
1,241.228 km
Perigee altitude
784.854 km
Semi-major axis
7,391.178 km
Eccentricity
0.03087
Inclination
99.1177°
RAAN
157.9734°
Arg. of periapsis
122.3102°
True anomaly
237.80335°
Mean anomaly
240.8341°
Eccentric anomaly
239.31292°
Mean motion
3.41564 °/min
Orbital period
105.4 mins
BSTAR
0.00089406
Loading maneuver chart data...
Computing Atmospheric mass density...
Loading historical data...
Loading historical data...
Loading historical data...
Loading historical data...
Loading historical data...
Loading historical data...
Loading historical data...

Documentation

Showing up to 5 results
|